Location: Unspecified
(52.4292°N, 19.3359°E)
Time: 23:19:35
(UTC+02:00)

SR - Pass Details

Date: 31 May 2024
Orbit: 580 x 858 km, 66.7° (Epoch: 12 June)

Event Time Altitude Azimuth Distance (km) Brightness Sun altitude
Rises 01:51:59 0° 312° (NW) 2,855 ? -14.0°
Reaches altitude 10° 01:54:40 10° 296° (WNW) 1,924 ? -13.9°
Maximum altitude 01:57:53 21° 248° (WSW) 1,336 ? -13.7°
Enters shadow 01:58:56 19° 227° (SW) 1,407 ? -13.7°
Drops below altitude 10° 02:01:03 10° 199° (SSW) 1,893 - -13.6°
Sets 02:03:40 0° 183° (S) 2,795 - -13.4°
